COSMOS 2251 DEB, 34854

Orbit data source: Space-Track

COSMOS 2251 DEB, 34854 is space debris in LEO originally from a launch on Wed, 16 Jun 1993 UTC launched from the Plesetsk Missile And Space Complex (PKMTR). The debris from Iridium 33, an American commercial communications satellite, has been tracked extensively since its accidental collision with the defunct Russian satellite Cosmos 2251 in 2009. This event, occurring at high speed in low Earth orbit (LEO), generated thousands of pieces of space debris, significantly increasing the risk of further collisions. The Iridium 33 debris cloud has impacted space traffic management and orbital debris mitigation strategies, making it a subject of ongoing study in space situational awareness.

Loading next visibility...
Identifier
34854, 1993-036ABY
Orbit
LEO
Country
Flag of CISCIS
Related business
Manufacturer
Unknown
Mission
Spacecraft
Bus & Motor
Unknown
Mass
Unknown
Launch date (UTC)
1993-06-16 (33 years ago)
Launch vehicle
Unknown
Launch site
Plesetsk Missile And Space Complex (PKMTR)
Object type
Payload
Rocket body
Debris
Shape & HBR
Unknown shape, 0.1 m
Radar Cross Section
Small (<0.1 m²)

Expand to show TLE details & history
Last TLE update: 2 days ago

TLE from 2 days ago
0 COSMOS 2251 DEB
1 34854U 93036ABY 25351.16288590  .00004175  00000-0  58060-3 0  9999
2 34854  74.0279 149.9114 0066090 260.7011  98.6686 14.76668527719475
Epoch: 2025-12-17T03:54Z
TLE epoch observation values (Epoch: 2025-12-17T03:54:33.341Z)
Latitude
-0.00001°
Longitude
5.23578°
Altitude
649.81 km
Speed
7.529 km/s
True Right ascension
09h 59m 38s
True Declination
0° 00' 00"
Sunlit
Object was in daylight at epoch
Visualization orbit readout
Latitude
Unknown
Longitude
Unknown
Altitude
Unknown
Speed
Unknown
Apparent Right ascension
Unknown
Apparent Declination
Unknown
Sunlit
N/A
Visualization observer readout
Local Sidereal Time
22:32:44
Azimuth
Unknown
Elevation
Unknown
Doppler factor
Unknown
Orbital elements
Apogee altitude
683.805 km
Perigee altitude
591.074 km
Semi-major axis
7,015.577 km
Eccentricity
0.00661
Inclination
74.0279°
RAAN
149.9114°
Arg. of periapsis
260.7011°
True anomaly
99.41633°
Mean anomaly
98.6686°
Eccentric anomaly
99.04256°
Mean motion
3.69359 °/min
Orbital period
97.47 mins
BSTAR
0.0005806
Loading maneuver chart data...
Computing Atmospheric mass density...
Loading historical data...
Loading historical data...
Loading historical data...
Loading historical data...
Loading historical data...
Loading historical data...
Loading historical data...

Documentation

Showing up to 5 results
|